Time,TemperatureF,DewpointF,PressureIn,WindDirection,WindDirectionDegrees,WindSpeedMPH,WindSpeedGustMPH,Humidity,HourlyPrecipIn,Conditions,Clouds,dailyrainin,SoftwareType,DateUTC
2014-11-28 00:02:00,31.3,25.9,30.30,SE,124,0.0,0.0,80,0.00,,,0.00,meteobridge,2014-11-28 06:02:00,
2014-11-28 00:07:00,31.5,26.1,30.30,SE,124,0.0,0.0,80,0.00,,,0.00,meteobridge,2014-11-28 06:07:00,
2014-11-28 00:12:00,31.5,25.7,30.29,SE,124,0.0,0.0,79,0.00,,,0.00,meteobridge,2014-11-28 06:12:00,
2014-11-28 00:17:00,31.5,26.1,30.29,SE,124,0.0,0.0,80,0.00,,,0.00,meteobridge,2014-11-28 06:17:00,
2014-11-28 00:22:00,31.5,26.1,30.29,ESE,121,0.0,1.0,80,0.00,,,0.00,meteobridge,2014-11-28 06:22:00,
2014-11-28 00:27:00,31.6,26.2,30.29,ESE,121,0.0,0.0,80,0.00,,,0.00,meteobridge,2014-11-28 06:27:00,
2014-11-28 00:32:00,31.6,26.2,30.29,ESE,122,0.0,0.0,80,0.00,,,0.00,meteobridge,2014-11-28 06:32:00,
2014-11-28 00:37:00,31.6,26.2,30.29,ESE,122,0.0,0.0,80,0.00,,,0.00,meteobridge,2014-11-28 06:37:00,
2014-11-28 00:42:00,31.3,25.9,30.29,ESE,121,0.0,0.0,80,0.00,,,0.00,meteobridge,2014-11-28 06:42:00,
2014-11-28 00:47:00,30.9,25.7,30.29,ESE,121,0.0,0.0,81,0.00,,,0.00,meteobridge,2014-11-28 06:47:00,
2014-11-28 00:52:00,30.6,25.3,30.29,ESE,122,0.0,0.0,81,0.00,,,0.00,meteobridge,2014-11-28 06:52:00,
2014-11-28 00:57:00,30.0,25.2,30.29,ESE,121,0.0,0.0,82,0.00,,,0.00,meteobridge,2014-11-28 06:57:00,
2014-11-28 01:02:00,29.5,24.6,30.29,ESE,121,0.0,0.0,82,0.00,,,0.00,meteobridge,2014-11-28 07:02:00,
2014-11-28 01:08:00,28.9,24.4,30.28,ESE,121,0.0,0.0,83,0.00,,,0.00,meteobridge,2014-11-28 07:08:00,
2014-11-28 01:13:00,29.1,25.2,30.28,ESE,121,0.0,0.0,85,0.00,,,0.00,meteobridge,2014-11-28 07:13:00,
2014-11-28 01:18:00,29.3,25.7,30.27,ESE,121,0.0,0.0,86,0.00,,,0.00,meteobridge,2014-11-28 07:18:00,
2014-11-28 01:23:00,29.3,25.3,30.27,ESE,122,0.0,0.0,85,0.00,,,0.00,meteobridge,2014-11-28 07:23:00,
2014-11-28 01:28:00,29.1,25.5,30.27,ESE,121,0.0,0.0,86,0.00,,,0.00,meteobridge,2014-11-28 07:28:00,
2014-11-28 01:33:00,29.5,25.9,30.27,ESE,121,0.0,0.0,86,0.00,,,0.00,meteobridge,2014-11-28 07:33:00,
2014-11-28 01:38:00,29.8,26.2,30.27,NNW,340,0.0,1.0,86,0.00,,,0.00,meteobridge,2014-11-28 07:38:00,
2014-11-28 01:43:00,30.4,26.8,30.27,NNW,345,0.9,1.0,86,0.00,,,0.00,meteobridge,2014-11-28 07:43:00,
2014-11-28 01:48:00,30.6,26.2,30.27,NNW,347,0.0,1.0,84,0.00,,,0.00,meteobridge,2014-11-28 07:48:00,
2014-11-28 01:53:00,30.7,26.4,30.28,NNW,347,0.0,0.0,84,0.00,,,0.00,meteobridge,2014-11-28 07:53:00,
2014-11-28 01:58:00,30.7,26.2,30.28,NNW,347,0.0,0.0,83,0.00,,,0.00,meteobridge,2014-11-28 07:58:00,
2014-11-28 02:03:00,30.6,26.2,30.28,North,353,0.0,0.0,84,0.00,,,0.00,meteobridge,2014-11-28 08:03:00,
2014-11-28 02:08:00,31.5,27.1,30.28,East,101,0.0,0.0,84,0.00,,,0.00,meteobridge,2014-11-28 08:08:00,
2014-11-28 02:14:00,31.5,26.6,30.28,East,101,0.0,0.0,82,0.00,,,0.00,meteobridge,2014-11-28 08:14:00,
2014-11-28 02:19:00,31.3,26.8,30.28,NW,315,0.0,0.0,83,0.00,,,0.00,meteobridge,2014-11-28 08:19:00,
2014-11-28 02:24:00,31.1,26.6,30.28,NW,315,0.0,0.0,83,0.00,,,0.00,meteobridge,2014-11-28 08:24:00,
2014-11-28 02:29:00,30.9,26.4,30.28,NW,315,0.0,0.0,83,0.00,,,0.00,meteobridge,2014-11-28 08:29:00,
2014-11-28 02:34:00,30.6,26.1,30.28,NW,314,0.0,0.0,83,0.00,,,0.00,meteobridge,2014-11-28 08:34:00,
2014-11-28 02:39:00,30.6,26.6,30.27,NW,314,0.0,0.0,85,0.00,,,0.00,meteobridge,2014-11-28 08:39:00,
2014-11-28 02:44:00,30.9,26.6,30.27,NW,314,0.0,0.0,84,0.00,,,0.00,meteobridge,2014-11-28 08:44:00,
2014-11-28 02:49:00,31.3,27.0,30.27,NW,314,0.0,0.0,84,0.00,,,0.00,meteobridge,2014-11-28 08:49:00,
2014-11-28 02:54:00,31.6,27.1,30.27,NNE,20,0.0,1.0,83,0.00,,,0.00,meteobridge,2014-11-28 08:54:00,
2014-11-28 02:59:00,31.6,27.1,30.27,NNE,20,0.0,0.0,83,0.00,,,0.00,meteobridge,2014-11-28 08:59:00,
2014-11-28 03:04:00,31.6,27.1,30.27,NNE,21,0.0,0.0,83,0.00,,,0.00,meteobridge,2014-11-28 09:04:00,
2014-11-28 03:09:00,31.5,26.6,30.27,NNE,20,0.0,0.0,82,0.00,,,0.00,meteobridge,2014-11-28 09:09:00,
2014-11-28 03:14:00,31.1,26.6,30.27,NNE,20,0.0,0.0,83,0.00,,,0.00,meteobridge,2014-11-28 09:14:00,
2014-11-28 03:19:00,30.6,26.1,30.27,NNE,20,0.0,0.0,83,0.00,,,0.00,meteobridge,2014-11-28 09:19:00,
2014-11-28 03:24:00,30.4,26.4,30.26,NNE,20,0.0,0.0,85,0.00,,,0.00,meteobridge,2014-11-28 09:24:00,
2014-11-28 03:29:00,30.4,26.4,30.26,NNE,20,0.0,0.0,85,0.00,,,0.00,meteobridge,2014-11-28 09:29:00,
2014-11-28 03:35:00,30.7,27.1,30.26,ESE,115,0.0,0.0,86,0.00,,,0.00,meteobridge,2014-11-28 09:35:00,
2014-11-28 03:40:00,31.5,27.5,30.26,SE,125,0.0,1.0,85,0.00,,,0.00,meteobridge,2014-11-28 09:40:00,
2014-11-28 03:45:00,32.4,27.9,30.25,SE,145,0.0,1.0,83,0.00,,,0.00,meteobridge,2014-11-28 09:45:00,
2014-11-28 03:50:00,32.5,27.7,30.25,SE,145,0.0,1.0,82,0.00,,,0.00,meteobridge,2014-11-28 09:50:00,
2014-11-28 03:55:00,32.5,27.7,30.25,SE,145,0.0,0.0,82,0.00,,,0.00,meteobridge,2014-11-28 09:55:00,
2014-11-28 04:00:00,33.1,28.2,30.24,SE,139,0.9,1.0,82,0.00,,,0.00,meteobridge,2014-11-28 10:00:00,
2014-11-28 04:05:00,33.8,28.2,30.24,SSE,153,0.9,2.0,80,0.00,,,0.00,meteobridge,2014-11-28 10:05:00,
2014-11-28 04:10:00,34.2,28.4,30.24,SE,128,0.9,2.0,79,0.00,,,0.00,meteobridge,2014-11-28 10:10:00,
2014-11-28 04:15:00,34.5,28.4,30.24,SE,131,0.9,2.0,78,0.00,,,0.00,meteobridge,2014-11-28 10:15:00,
2014-11-28 04:20:00,34.9,28.4,30.23,SSE,149,2.0,3.0,77,0.00,,,0.00,meteobridge,2014-11-28 10:20:00,
2014-11-28 04:25:00,35.1,28.6,30.23,SE,143,0.9,1.0,77,0.00,,,0.00,meteobridge,2014-11-28 10:25:00,
2014-11-28 04:30:00,35.1,28.6,30.23,SSE,158,0.0,3.0,77,0.00,,,0.00,meteobridge,2014-11-28 10:30:00,
2014-11-28 04:35:00,34.9,28.4,30.23,SE,143,0.0,1.0,77,0.00,,,0.00,meteobridge,2014-11-28 10:35:00,
2014-11-28 04:40:00,34.7,28.2,30.22,SSW,210,0.9,1.0,77,0.00,,,0.00,meteobridge,2014-11-28 10:40:00,
2014-11-28 04:45:00,34.5,28.0,30.22,SSE,159,0.0,0.0,77,0.00,,,0.00,meteobridge,2014-11-28 10:45:00,
2014-11-28 04:50:00,34.2,28.0,30.22,SE,141,0.9,1.0,78,0.00,,,0.00,meteobridge,2014-11-28 10:50:00,
2014-11-28 04:55:00,34.0,28.2,30.22,SE,136,0.0,1.0,79,0.00,,,0.00,meteobridge,2014-11-28 10:55:00,
2014-11-28 05:00:00,34.0,28.2,30.21,SSE,148,2.0,2.0,79,0.00,,,0.00,meteobridge,2014-11-28 11:00:00,
2014-11-28 05:05:00,34.2,28.4,30.21,SE,143,0.9,2.0,79,0.00,,,0.00,meteobridge,2014-11-28 11:05:00,
2014-11-28 05:10:00,34.5,28.4,30.20,SSE,152,0.9,2.0,78,0.00,,,0.00,meteobridge,2014-11-28 11:10:00,
2014-11-28 05:15:00,34.9,28.4,30.20,SSE,153,0.9,3.0,77,0.00,,,0.00,meteobridge,2014-11-28 11:15:00,
2014-11-28 05:20:00,35.2,28.4,30.20,SE,141,0.0,3.0,76,0.00,,,0.00,meteobridge,2014-11-28 11:20:00,
2014-11-28 05:26:00,35.4,28.6,30.20,SSW,212,0.9,2.0,76,0.00,,,0.00,meteobridge,2014-11-28 11:26:00,
2014-11-28 05:31:00,35.8,28.6,30.20,SW,214,0.0,2.0,75,0.00,,,0.00,meteobridge,2014-11-28 11:31:00,
2014-11-28 05:36:00,35.8,28.6,30.20,SW,231,0.0,2.0,75,0.00,,,0.00,meteobridge,2014-11-28 11:36:00,
2014-11-28 05:41:00,35.8,28.6,30.20,SSW,205,0.9,1.0,75,0.00,,,0.00,meteobridge,2014-11-28 11:41:00,
2014-11-28 05:46:00,35.8,28.6,30.20,SW,217,0.0,2.0,75,0.00,,,0.00,meteobridge,2014-11-28 11:46:00,
2014-11-28 05:51:00,36.0,28.8,30.20,SSE,152,0.0,3.0,75,0.00,,,0.00,meteobridge,2014-11-28 11:51:00,
2014-11-28 05:56:00,36.1,28.9,30.19,SSE,161,0.9,4.0,75,0.00,,,0.00,meteobridge,2014-11-28 11:56:00,
2014-11-28 06:01:00,36.3,29.1,30.19,SE,141,2.0,4.0,75,0.00,,,0.00,meteobridge,2014-11-28 12:01:00,
2014-11-28 06:06:00,36.7,29.1,30.19,SSE,155,0.0,2.0,74,0.00,,,0.00,meteobridge,2014-11-28 12:06:00,
2014-11-28 06:11:00,37.0,29.5,30.19,SSW,204,2.0,6.0,74,0.00,,,0.00,meteobridge,2014-11-28 12:11:00,
2014-11-28 06:16:00,37.6,29.7,30.19,SSW,204,0.9,6.0,73,0.00,,,0.00,meteobridge,2014-11-28 12:16:00,
2014-11-28 06:21:00,37.8,29.8,30.19,SSW,207,2.0,7.0,73,0.00,,,0.00,meteobridge,2014-11-28 12:21:00,
2014-11-28 06:27:00,38.1,29.8,30.19,SW,218,0.9,6.0,72,0.00,,,0.00,meteobridge,2014-11-28 12:27:00,
2014-11-28 06:32:00,38.5,30.2,30.19,SW,225,4.0,5.0,72,0.00,,,0.00,meteobridge,2014-11-28 12:32:00,
2014-11-28 06:37:00,38.7,30.0,30.19,SSW,207,2.0,5.0,71,0.00,,,0.00,meteobridge,2014-11-28 12:37:00,
2014-11-28 06:42:00,38.7,30.0,30.19,SSW,203,2.0,6.0,71,0.00,,,0.00,meteobridge,2014-11-28 12:42:00,
2014-11-28 06:47:00,38.8,30.2,30.19,SE,146,2.0,5.0,71,0.00,,,0.00,meteobridge,2014-11-28 12:47:00,
2014-11-28 06:52:00,38.8,30.2,30.19,SW,214,2.9,6.0,71,0.00,,,0.00,meteobridge,2014-11-28 12:52:00,
2014-11-28 06:57:00,39.0,30.4,30.19,South,172,2.0,7.0,71,0.00,,,0.00,meteobridge,2014-11-28 12:57:00,
2014-11-28 07:02:00,39.0,30.4,30.19,SSE,158,2.9,10.0,71,0.00,,,0.00,meteobridge,2014-11-28 13:02:00,
2014-11-28 07:07:00,39.4,30.4,30.19,South,184,4.0,6.0,70,0.00,,,0.00,meteobridge,2014-11-28 13:07:00,
2014-11-28 07:12:00,39.4,30.4,30.19,SSE,160,2.9,7.0,70,0.00,,,0.00,meteobridge,2014-11-28 13:12:00,
2014-11-28 07:17:00,39.6,30.6,30.18,SW,215,2.9,5.0,70,0.00,,,0.00,meteobridge,2014-11-28 13:17:00,
2014-11-28 07:22:00,39.6,30.6,30.18,SSW,198,4.9,6.0,70,0.00,,,0.00,meteobridge,2014-11-28 13:22:00,
2014-11-28 07:27:00,39.7,30.4,30.18,South,181,2.0,6.0,69,0.00,,,0.00,meteobridge,2014-11-28 13:27:00,
2014-11-28 07:32:00,39.9,30.6,30.18,South,188,2.0,8.0,69,0.00,,,0.00,meteobridge,2014-11-28 13:32:00,
2014-11-28 07:37:00,40.3,30.9,30.17,SSW,205,0.9,7.0,69,0.00,,,0.00,meteobridge,2014-11-28 13:37:00,
2014-11-28 07:42:00,40.5,30.7,30.17,SSE,155,6.9,10.0,68,0.00,,,0.00,meteobridge,2014-11-28 13:42:00,
2014-11-28 07:47:00,40.6,30.9,30.17,SSE,152,2.0,8.0,68,0.00,,,0.00,meteobridge,2014-11-28 13:47:00,
2014-11-28 07:52:00,40.8,31.1,30.17,South,172,4.0,8.0,68,0.00,,,0.00,meteobridge,2014-11-28 13:52:00,
2014-11-28 07:57:00,41.0,31.3,30.16,SSE,162,4.0,6.0,68,0.00,,,0.00,meteobridge,2014-11-28 13:57:00,
2014-11-28 08:02:00,41.2,31.5,30.16,SSE,165,0.9,9.0,68,0.00,,,0.00,meteobridge,2014-11-28 14:02:00,
2014-11-28 08:07:00,41.5,31.5,30.16,SSW,208,4.0,7.0,67,0.00,,,0.00,meteobridge,2014-11-28 14:07:00,
2014-11-28 08:12:00,41.9,31.8,30.16,SSE,166,4.0,11.0,67,0.00,,,0.00,meteobridge,2014-11-28 14:12:00,
2014-11-28 08:17:00,42.3,31.6,30.16,SSW,211,4.9,8.0,66,0.00,,,0.00,meteobridge,2014-11-28 14:17:00,
2014-11-28 08:22:00,42.6,32.0,30.16,WSW,243,6.9,9.0,66,0.00,,,0.00,meteobridge,2014-11-28 14:22:00,
2014-11-28 08:27:00,43.0,32.4,30.16,SE,124,2.9,7.0,66,0.00,,,0.00,meteobridge,2014-11-28 14:27:00,
2014-11-28 08:32:00,43.2,31.8,30.16,SW,223,4.9,10.0,64,0.00,,,0.00,meteobridge,2014-11-28 14:32:00,
2014-11-28 08:37:00,43.5,32.2,30.16,SSW,198,2.9,6.0,64,0.00,,,0.00,meteobridge,2014-11-28 14:37:00,
2014-11-28 08:42:00,44.1,32.7,30.16,SSW,200,4.0,6.0,64,0.00,,,0.00,meteobridge,2014-11-28 14:42:00,
2014-11-28 08:47:00,44.4,32.5,30.16,SSW,203,2.0,11.0,63,0.00,,,0.00,meteobridge,2014-11-28 14:47:00,
2014-11-28 08:53:00,44.8,32.9,30.16,SSW,193,6.0,8.0,63,0.00,,,0.00,meteobridge,2014-11-28 14:53:00,
2014-11-28 08:58:00,45.3,33.1,30.16,SSW,207,6.9,11.0,62,0.00,,,0.00,meteobridge,2014-11-28 14:58:00,
2014-11-28 09:03:00,45.9,33.3,30.16,SW,217,6.0,9.0,61,0.00,,,0.00,meteobridge,2014-11-28 15:03:00,
2014-11-28 09:08:00,46.2,33.1,30.16,SSW,199,6.0,8.0,60,0.00,,,0.00,meteobridge,2014-11-28 15:08:00,
2014-11-28 09:13:00,46.9,33.4,30.15,SSW,197,12.1,12.1,59,0.00,,,0.00,meteobridge,2014-11-28 15:13:00,
2014-11-28 09:18:00,47.5,33.8,30.15,SSW,208,4.0,9.0,59,0.00,,,0.00,meteobridge,2014-11-28 15:18:00,
2014-11-28 09:23:00,48.0,34.0,30.15,SSE,156,2.9,12.0,58,0.00,,,0.00,meteobridge,2014-11-28 15:23:00,
2014-11-28 09:28:00,48.6,34.5,30.15,SSW,195,12.1,12.1,58,0.00,,,0.00,meteobridge,2014-11-28 15:28:00,
2014-11-28 09:33:00,48.9,34.3,30.15,SW,225,6.0,12.0,57,0.00,,,0.00,meteobridge,2014-11-28 15:33:00,
2014-11-28 09:38:00,49.1,34.2,30.15,SSW,207,6.0,10.0,56,0.00,,,0.00,meteobridge,2014-11-28 15:38:00,
2014-11-28 09:43:00,49.3,34.2,30.15,SW,226,15.0,19.0,56,0.00,,,0.00,meteobridge,2014-11-28 15:43:00,
2014-11-28 09:48:00,49.6,34.2,30.14,SSE,162,4.0,15.0,55,0.00,,,0.00,meteobridge,2014-11-28 15:48:00,
2014-11-28 09:53:00,50.2,34.2,30.14,SSE,148,6.0,16.0,54,0.00,,,0.00,meteobridge,2014-11-28 15:53:00,
2014-11-28 09:58:00,50.7,35.1,30.14,SW,221,10.1,12.0,55,0.00,,,0.00,meteobridge,2014-11-28 15:58:00,
2014-11-28 10:03:00,51.1,35.1,30.14,South,184,6.9,14.0,54,0.00,,,0.00,meteobridge,2014-11-28 16:03:00,
2014-11-28 10:08:00,51.4,35.4,30.14,SSW,212,8.1,12.0,54,0.00,,,0.00,meteobridge,2014-11-28 16:08:00,
2014-11-28 10:13:00,52.0,34.9,30.14,SSW,212,6.0,18.0,52,0.00,,,0.00,meteobridge,2014-11-28 16:13:00,
2014-11-28 10:18:00,52.2,35.6,30.14,South,173,4.9,14.0,53,0.00,,,0.00,meteobridge,2014-11-28 16:18:00,
2014-11-28 10:23:00,52.5,35.4,30.14,SW,214,10.1,14.0,52,0.00,,,0.00,meteobridge,2014-11-28 16:23:00,